DW9313 Weather Reports


time (UTC)temp
C
wind
direction
speed
KPH
gust
KPH
rain 1hr
cm
rain 24hr
cm
rain mn
cm
humidity
%
barometer
mb
20260507105752 13 170 1.6 9.7 0.05 0.36 0.10 74 1012.6
20260507105253 13 310 3.2 9.7 0.08 0.36 0.10 76 1012.6
20260507104752 13 150 1.6 4.8 0.08 0.36 0.10 76 1012.6
20260507104254 13 144 1.6 9.7 0.08 0.36 0.10 76 1012.6
20260507103754 12 330 3.2 11.3 0.08 0.36 0.10 76 1012.6
20260507102754 13 305 3.2 12.9 0.03 0.30 0.05 78 1012.6
20260507102254 12 291 3.2 8.0 0.03 0.30 0.05 78 1012.6
20260507101753 12 232 0.0 4.8 0.03 0.30 0.05 81 1012.6
20260507101253 12 259 1.6 8.0 0.05 0.30 0.05 81 1012.6
20260507100754 12 179 1.6 8.0 0.28 0.30 0.30 85 1012.6
20260507100254 12 231 3.2 8.0 0.15 0.18 0.18 87 1012.6
20260507095755 11 165 0.0 4.8 0.05 0.08 0.08 88 1012.6
20260507095255 11 328 0.0 8.0 0.03 0.05 0.05 88 1012.6
20260507094753 11 203 1.6 8.0 0.03 0.05 0.05 87 1012.6
20260507094254 11 180 4.8 9.7 0.03 0.05 0.05 86 1012.6
20260507093754 11 146 1.6 4.8 0.03 0.05 0.05 85 1012.6
20260507093255 11 161 0.0 1.6 0.03 0.05 0.05 84 1012.5
20260507092754 11 278 1.6 8.0 0.03 0.05 0.05 84 1012.5
20260507092254 12 317 1.6 8.0 0.03 0.03 0.03 85 1012.4
20260507091754 12 301 1.6 9.7 0.03 0.03 0.03 85 1012.4
20260507085753 11 163 4.8 9.7 0.03 0.03 0.03 88 1012.4
20260507085254 11 158 4.8 9.7 0.03 0.03 0.03 88 1012.5
20260507084753 11 139 1.6 9.7 0.03 0.03 0.03 89 1012.4
20260507084253 11 146 1.6 8.0 0.03 0.03 0.03 88 1012.5
20260507083754 11 188 1.6 9.7 0.03 0.03 0.03 88 1012.4
20260507082755 11 199 0.0 4.8 0.03 0.03 0.03 86 1012.4
20260507081754 11 176 1.6 11.3 0.00 0.00 0.00 83 1012.5
20260507081254 11 132 1.6 4.8 0.00 0.00 0.00 81 1012.4
20260507080754 11 278 3.2 12.9 0.00 0.00 0.00 78 1012.4
20260507080254 11 177 9.7 14.5 0.00 0.00 0.00 74 1012.3
20260507075754 12 180 1.6 11.3 0.00 0.00 0.00 74 1012.3
20260507075255 12 179 8.0 12.9 0.00 0.00 0.00 72 1012.3
20260507074755 12 176 8.0 12.9 0.00 0.00 0.00 73 1012.2
20260507074254 12 154 3.2 9.7 0.00 0.00 0.00 73 1012.1
20260507072754 12 151 4.8 11.3 0.00 0.00 0.00 75 1012.2
20260507072254 12 176 4.8 11.3 0.00 0.00 0.00 77 1012.1
20260507071754 11 152 4.8 11.3 0.00 0.00 0.00 78 1012.1
20260507071254 11 161 4.8 11.3 0.00 0.00 0.00 77 1012.2
20260507070755 11 179 6.4 12.9 0.00 0.00 0.00 77 1012.1
20260507070255 11 135 4.8 11.3 0.00 0.00 0.00 79 1012.1
20260507065756 11 150 6.4 12.9 0.00 0.00 0.00 80 1012.1
20260507065254 11 126 8.0 12.9 0.00 0.00 0.00 81 1012.1
20260507064254 11 111 1.6 3.2 0.00 0.00 0.00 82 1012.3
20260507063256 11 128 0.0 3.2 0.00 0.00 0.00 82 1012.3
20260507062755 10 98 0.0 1.6 0.00 0.00 0.00 82 1012.4
20260507062255 10 98 0.0 1.6 0.00 0.00 0.00 83 1012.4
20260507061755 10 98 0.0 0.0 0.00 0.00 0.00 86 1012.4
20260507061256 9 98 0.0 0.0 0.00 0.00 0.00 87 1012.4
20260507060755 8 98 0.0 0.0 0.00 0.00 0.00 89 1012.4
20260507060254 8 98 0.0 0.0 0.00 0.00 0.00 90 1012.4
20260507055755 8 98 0.0 0.0 0.00 0.00 0.00 92 1012.4
20260507054756 6 99 0.0 0.0 0.00 0.00 0.00 93 1012.4
20260507053755 6 99 0.0 1.6 0.00 0.00 0.00 92 1012.3
20260507053255 5 105 0.0 1.6 0.00 0.00 0.00 92 1012.3
20260507052756 5 13 0.0 0.0 0.00 0.00 0.00 92 1012.3
20260507051756 5 359 0.0 0.0 0.00 0.00 0.00 92 1012.3
20260507051256 5 359 0.0 0.0 0.00 0.00 0.00 92 1012.3
20260507050755 5 359 0.0 0.0 0.00 0.00 0.00 91 1012.3
20260507050255 5 359 0.0 0.0 0.00 0.00 0.00 91 1012.3
20260507045757 5 359 0.0 0.0 0.00 0.00 0.00 91 1012.2
20260507045257 5 359 0.0 0.0 0.00 0.00 0.00 91 1012.2
20260507044758 6 359 0.0 0.0 0.00 0.00 0.00 91 1012.3
20260507044256 6 359 0.0 0.0 0.00 0.00 0.00 91 1012.2
20260507043756 6 359 0.0 0.0 0.00 0.00 0.00 91 1012.3
20260507043255 6 359 0.0 0.0 0.00 0.00 0.00 92 1012.2
20260507042755 6 359 0.0 0.0 0.00 0.00 0.00 91 1012.2
20260507042256 6 359 0.0 0.0 0.00 0.00 0.00 91 1012.3
20260507041757 6 359 0.0 0.0 0.00 0.00 0.00 91 1012.2
20260507041255 6 359 0.0 0.0 0.00 0.00 0.00 91 1012.2
20260507040757 6 359 0.0 0.0 0.00 0.00 0.00 91 1012.2
20260507040256 6 359 0.0 0.0 0.00 0.00 0.00 90 1012.2
20260507035756 6 359 0.0 0.0 0.00 0.00 0.00 90 1012.2
20260507035256 6 359 0.0 0.0 0.00 0.00 0.00 90 1012.3
20260507034757 6 359 0.0 0.0 0.00 0.00 0.00 90 1012.3
20260507034258 6 359 0.0 0.0 0.00 0.00 0.00 90 1012.3
20260507033756 7 359 0.0 0.0 0.00 0.00 0.00 90 1012.3
20260507033256 7 359 0.0 0.0 0.00 0.00 0.00 90 1012.3
20260507032258 7 359 0.0 0.0 0.00 0.00 0.00 90 1012.3
20260507031756 7 342 0.0 0.0 0.00 0.00 0.00 90 1012.3
20260507030757 7 342 0.0 0.0 0.00 0.00 0.00 89 1012.4
20260507030257 7 342 0.0 0.0 0.00 0.00 0.00 89 1012.4
20260507025758 7 342 0.0 0.0 0.00 0.00 0.00 89 1012.4
20260507025257 7 342 0.0 0.0 0.00 0.00 0.00 88 1012.4
20260507024756 7 342 0.0 0.0 0.00 0.00 0.00 88 1012.4
20260507024258 8 342 0.0 0.0 0.00 0.00 0.00 88 1012.4
20260507023757 8 342 0.0 0.0 0.00 0.00 0.00 87 1012.4
20260507023257 8 342 0.0 0.0 0.00 0.00 0.00 87 1012.4
20260507022756 8 342 0.0 0.0 0.00 0.00 0.00 87 1012.4
20260507022257 8 342 0.0 0.0 0.00 0.00 0.00 87 1012.4
20260507021757 8 342 0.0 0.0 0.00 0.00 0.00 87 1012.4
20260507020757 8 342 0.0 0.0 0.00 0.00 0.00 86 1012.4
20260507020257 8 342 0.0 0.0 0.00 0.00 0.00 86 1012.4
20260507015257 9 342 0.0 0.0 0.00 0.00 0.00 86 1012.5
20260507014258 9 342 0.0 0.0 0.00 0.00 0.00 86 1012.5
20260507013757 9 342 0.0 0.0 0.00 0.00 0.00 86 1012.5
20260507013258 9 342 0.0 0.0 0.00 0.00 0.00 86 1012.5
20260507012257 9 342 0.0 0.0 0.00 0.00 0.00 87 1012.5
20260507011757 9 342 0.0 0.0 0.00 0.00 0.00 87 1012.5
20260507010758 9 342 0.0 0.0 0.00 0.00 0.00 87 1012.6
20260507005758 9 342 0.0 0.0 0.00 0.00 0.00 87 1012.6
20260507005305 9 342 0.0 0.0 0.00 0.00 0.00 86 1012.7
20260507004804 9 342 0.0 0.0 0.00 0.00 0.00 86 1012.7
20260507004305 9 342 0.0 0.0 0.00 0.00 0.00 86 1012.7
20260507003757 9 342 0.0 0.0 0.00 0.00 0.00 86 1012.8
20260507003259 9 342 0.0 0.0 0.00 0.00 0.00 86 1012.8
20260507002757 9 342 0.0 0.0 0.00 0.00 0.00 85 1012.8
20260507002259 9 342 0.0 0.0 0.00 0.00 0.00 85 1012.8
20260507001758 9 342 0.0 0.0 0.00 0.00 0.00 85 1012.8
20260507001257 10 342 0.0 0.0 0.00 0.00 0.00 85 1012.9
20260507000759 9 342 0.0 0.0 0.00 0.00 0.00 85 1012.9
20260507000259 10 342 0.0 0.0 0.00 0.00 0.00 85 1012.9
20260506235758 10 342 0.0 0.0 0.00 0.00 0.00 85 1012.9
20260506235300 10 342 0.0 1.6 0.00 0.00 0.00 85 1013.0
20260506234758 10 338 0.0 0.0 0.00 0.00 0.00 85 1013.0
20260506234259 10 338 0.0 0.0 0.00 0.00 0.00 85 1013.0
20260506233758 10 338 0.0 0.0 0.00 0.00 0.00 85 1013.1
20260506233258 10 338 0.0 0.0 0.00 0.00 0.00 85 1013.1
20260506232758 9 338 0.0 0.0 0.00 0.00 0.00 86 1013.1
20260506232258 10 338 0.0 0.0 0.00 0.00 0.00 86 1013.0
20260506231758 10 338 0.0 0.0 0.00 0.00 0.00 86 1013.1
20260506230815 10 338 0.0 0.0 0.00 0.00 0.00 85 1013.1
20260506225758 10 338 0.0 0.0 0.00 0.00 0.00 85 1013.1
20260506225300 10 336 0.0 0.0 0.00 0.00 0.00 85 1013.2
20260506224300 10 336 0.0 0.0 0.00 0.00 0.00 85 1013.1
20260506223800 10 336 0.0 0.0 0.00 0.00 0.00 84 1013.1
20260506223259 10 336 0.0 0.0 0.00 0.00 0.00 84 1013.1
20260506222259 10 356 0.0 0.0 0.00 0.00 0.00 84 1013.1
20260506221759 10 356 0.0 0.0 0.00 0.00 0.00 84 1013.1
20260506221258 10 356 0.0 0.0 0.00 0.00 0.00 84 1013.1
20260506220259 10 356 0.0 0.0 0.00 0.00 0.00 84 1013.1
20260506215759 10 356 0.0 0.0 0.00 0.00 0.00 84 1013.1
20260506214259 10 342 0.0 0.0 0.00 0.00 0.00 83 1013.1
20260506213758 10 342 0.0 0.0 0.00 0.00 0.00 83 1013.2
20260506213259 10 342 0.0 1.6 0.00 0.00 0.00 83 1013.2
20260506212759 10 346 0.0 0.0 0.00 0.00 0.00 83 1013.2
20260506212300 10 346 0.0 1.6 0.00 0.00 0.00 83 1013.2
20260506211800 10 345 0.0 1.6 0.00 0.00 0.00 83 1013.2
20260506211259 10 326 0.0 1.6 0.00 0.00 0.00 83 1013.2
20260506210300 10 326 0.0 1.6 0.00 0.00 0.00 82 1013.2
20260506205800 10 232 0.0 1.6 0.00 0.00 0.00 82 1013.3
20260506205259 10 226 0.0 0.0 0.00 0.00 0.00 82 1013.3
20260506204801 10 178 0.0 1.6 0.00 0.00 0.00 82 1013.3
20260506204300 10 159 0.0 0.0 0.00 0.00 0.00 82 1013.3
20260506203801 10 159 0.0 0.0 0.00 0.00 0.00 82 1013.2
20260506203300 10 159 0.0 0.0 0.00 0.00 0.00 82 1013.2
20260506202759 10 150 0.0 0.0 0.00 0.00 0.00 82 1013.2
20260506202259 10 216 0.0 1.6 0.00 0.00 0.00 82 1013.2
20260506201300 11 145 0.0 1.6 0.00 0.00 0.00 82 1013.2
20260506200801 11 24 0.0 1.6 0.00 0.00 0.00 82 1013.2
20260506200301 11 189 0.0 0.0 0.00 0.00 0.00 82 1013.1
20260506195800 11 302 0.0 1.6 0.00 0.00 0.00 81 1013.1
20260506195300 11 314 0.0 0.0 0.00 0.00 0.00 81 1013.2
20260506194301 11 337 0.0 1.6 0.00 0.00 0.00 80 1013.2
20260506193800 11 312 0.0 1.6 0.00 0.00 0.00 80 1013.2
20260506193300 11 327 0.0 3.2 0.00 0.00 0.00 80 1013.1
20260506192801 11 324 0.0 1.6 0.00 0.00 0.00 80 1013.1
20260506192300 11 338 0.0 1.6 0.00 0.00 0.00 80 1013.1
20260506191800 11 292 0.0 1.6 0.00 0.00 0.00 80 1013.1
20260506191300 11 34 0.0 1.6 0.00 0.00 0.00 79 1013.1
20260506190301 11 320 0.0 3.2 0.00 0.00 0.00 79 1013.1
20260506185301 11 203 0.0 1.6 0.00 0.00 0.00 79 1013.1
20260506184800 11 228 0.0 1.6 0.00 0.00 0.00 79 1013.1
20260506183800 11 165 0.0 1.6 0.00 0.00 0.00 78 1013.1
20260506183302 11 179 0.0 3.2 0.00 0.00 0.00 78 1013.1
20260506182800 11 230 0.0 1.6 0.00 0.00 0.00 78 1013.1
20260506182301 11 343 1.6 4.8 0.00 0.00 0.00 77 1013.1
20260506181802 12 310 1.6 4.8 0.00 0.00 0.00 77 1013.1
20260506181303 12 25 1.6 4.8 0.00 0.00 0.00 77 1013.0
20260506180800 12 226 0.0 3.2 0.00 0.00 0.00 77 1013.1
20260506180301 12 332 0.0 1.6 0.00 0.00 0.00 77 1013.1
20260506175802 12 207 0.0 3.2 0.00 0.00 0.00 77 1013.1
20260506175301 12 119 0.0 4.8 0.00 0.00 0.00 76 1013.1
20260506174301 12 321 0.0 1.6 0.00 0.00 0.00 76 1013.1
20260506173801 12 275 1.6 9.7 0.00 0.00 0.00 77 1013.1
20260506173301 12 190 3.2 9.7 0.00 0.00 0.00 76 1013.1
20260506172803 12 200 1.6 9.7 0.00 0.00 0.00 76 1013.1
20260506172301 12 269 0.0 8.0 0.00 0.00 0.00 76 1013.2
20260506171801 12 70 0.0 4.8 0.00 0.00 0.00 76 1013.2
20260506171301 12 165 0.0 3.2 0.00 0.00 0.00 76 1013.3
20260506170302 12 305 1.6 4.8 0.00 0.00 0.00 76 1013.2
20260506165802 12 66 1.6 4.8 0.00 0.00 0.00 76 1013.3
20260506165305 12 337 0.0 3.2 0.00 0.00 0.00 76 1013.3
20260506164301 12 44 0.0 3.2 0.00 0.00 0.00 76 1013.4
20260506162301 12 22 1.6 8.0 0.00 0.00 0.00 75 1013.5
20260506161302 12 327 1.6 3.2 0.00 0.00 0.00 75 1013.6
20260506160802 12 307 1.6 8.0 0.00 0.00 0.00 75 1013.7
20260506160302 12 2 1.6 8.0 0.00 0.00 0.00 75 1013.7
20260506155802 12 318 4.8 9.7 0.00 0.00 0.00 75 1013.7
20260506155305 12 319 0.0 9.7 0.00 0.00 0.00 75 1013.8
20260506154801 12 339 1.6 8.0 0.00 0.00 0.00 75 1013.8
20260506154301 12 317 1.6 9.7 0.00 0.00 0.00 75 1013.8
20260506153802 12 285 1.6 8.0 0.00 0.00 0.00 74 1013.8
20260506153302 12 307 1.6 8.0 0.00 0.00 0.00 73 1013.8
20260506152802 13 242 1.6 8.0 0.00 0.00 0.00 73 1013.8
20260506151802 13 308 3.2 9.7 0.00 0.00 0.00 73 1014.0
20260506151301 13 347 1.6 4.8 0.00 0.00 0.00 73 1013.9
20260506150802 13 286 1.6 9.7 0.00 0.00 0.00 74 1013.9
20260506150304 13 339 1.6 8.0 0.00 0.00 0.00 74 1013.9
20260506145803 13 325 3.2 9.7 0.00 0.00 0.00 75 1013.9
20260506145305 13 153 4.8 9.7 0.00 0.00 0.00 74 1013.9
20260506144302 13 136 4.8 11.3 0.00 0.00 0.00 73 1013.9
20260506143803 13 182 1.6 9.7 0.00 0.00 0.00 72 1013.9
20260506143302 13 210 4.8 14.5 0.00 0.00 0.00 73 1013.8
20260506142802 13 233 1.6 3.2 0.00 0.00 0.00 73 1013.9
20260506141802 13 145 1.6 8.0 0.00 0.00 0.00 73 1014.0
20260506141302 12 179 3.2 9.7 0.00 0.00 0.00 74 1014.0
20260506140803 12 141 6.4 11.3 0.00 0.00 0.00 74 1014.0
20260506134803 12 253 1.6 8.0 0.00 0.00 0.00 74 1014.0
20260506134303 12 220 1.6 4.8 0.00 0.00 0.00 74 1014.1
20260506133802 12 217 1.6 4.8 0.00 0.00 0.00 75 1014.0
20260506133303 12 309 3.2 9.7 0.00 0.00 0.00 75 1014.1
20260506132306 12 165 1.6 8.0 0.00 0.00 0.00 76 1014.1
20260506131804 12 224 1.6 4.8 0.00 0.00 0.00 76 1014.1
20260506130804 12 144 1.6 9.7 0.00 0.00 0.00 77 1014.2
20260506130304 12 227 1.6 9.7 0.00 0.00 0.00 77 1014.2
20260506125305 11 174 3.2 9.7 0.00 0.00 0.00 77 1014.3
20260506124804 11 41 1.6 4.8 0.00 0.00 0.00 77 1014.3
20260506124304 11 181 3.2 9.7 0.00 0.00 0.00 76 1014.3
20260506123804 11 162 1.6 8.0 0.00 0.00 0.00 76 1014.2
20260506123303 11 163 0.0 3.2 0.00 0.00 0.00 76 1014.2
20260506122803 11 140 1.6 4.8 0.00 0.00 0.00 76 1014.2
20260506122306 11 349 0.0 1.6 0.00 0.00 0.00 76 1014.2
20260506121803 11 165 0.0 9.7 0.00 0.00 0.00 76 1014.2
20260506121303 11 146 0.0 3.2 0.00 0.00 0.00 75 1014.2
20260506120803 11 180 0.0 3.2 0.00 0.00 0.00 74 1014.3
20260506115804 11 189 1.6 4.8 0.00 0.00 0.00 74 1014.3
20260506115306 11 296 0.0 4.8 0.00 0.00 0.00 74 1014.3
20260506114803 11 179 1.6 8.0 0.00 0.00 0.00 73 1014.3
20260506114303 11 202 1.6 4.8 0.00 0.00 0.00 73 1014.3
20260506113805 11 251 0.0 4.8 0.00 0.00 0.00 75 1014.3
20260506113304 11 310 1.6 8.0 0.00 0.00 0.00 74 1014.2
20260506112804 11 332 3.2 4.8 0.00 0.00 0.00 73 1014.3
20260506112306 12 312 3.2 8.0 0.00 0.00 0.00 72 1014.2
20260506111804 12 309 3.2 9.7 0.00 0.00 0.00 72 1014.2
20260506111304 12 317 1.6 8.0 0.00 0.00 0.00 72 1014.2
20260506110804 12 325 1.6 4.8 0.00 0.00 0.00 72 1014.2
20260506110304 13 305 3.2 8.0 0.00 0.00 0.00 70 1014.2